Location: Hancock Field Station
(44.9202°N, 120.4259°W)
Time: 11:49:49
(UTC-07:00)

Nadezhda 4 Rocket - Visible Passes

Search period start: 01 July 2016 00:00
Search period end: 11 July 2016 00:00
Orbit: 949 x 993 km, 82.9° (Epoch: 30 June)

Date Brightness Start Highest point End Pass type
(mag) Time Alt. Az. Time Alt. Az. Time Alt. Az.
02 Jul 7.3 04:31:31 10° NE 04:33:38 12° ENE 04:35:46 10° E visible
06 Jul 6.8 04:21:22 10° NNE 04:25:09 17° ENE 04:28:54 10° ESE visible
07 Jul 6.3 04:44:32 10° NNE 04:49:43 28° ENE 04:54:52 10° SE visible
09 Jul 6.9 03:49:05 10° NNE 03:51:56 13° ENE 03:54:46 10° E visible
10 Jul 6.5 04:11:50 10° NNE 04:16:34 23° ENE 04:21:17 10° ESE visible
